STARLINK-6097, 57105

Orbit data source: Space-Track

STARLINK-6097, 57105 is a payload satellite owned by SpaceX/Seattle (US) in LEO that was launched on Fri, 23 Jun 2023 UTC via an FALCON 9 launch vehicle from the Air Force Eastern Test Range (AFETR). Payload-class satellites include a variety of spacecraft equipped with specific instruments for various scientific and technological missions. These include communications satellites like Starlink; space stations such as the ISS; scientific satellites like the Hubble; Earth observation satellites from companies like Planet Labs, Umbra, and HawkEye 360; GPS; miniature CubeSats for education and research; and military/defense satellites.

Loading next visibility...
Identifier
57105, 2023-090E
Orbit
LEO
Country
Flag of USUS
Related business
Manufacturer
SpaceX/Seattle
Mission
Operational Commercial Communications
Bus & Motor
STARLINK, Unknown motor
Mass
305 kg wet, ~290 kg dry
Launch date (UTC)
2023-06-23 (3 years ago)
Launch vehicle
FALCON 9
Launch site
Air Force Eastern Test Range (AFETR)
Object type
Payload
Rocket body
Debris
Shape & HBR
Box + 1 Pan, 10.1 m
Radar Cross Section
11.087 m², Large (>1 m²)

Expand to show TLE details & history
Last TLE update: 2 days ago

TLE from 2 days ago
0 STARLINK-6097
1 57105U 23090E   26171.10814316  .00000581  00000-0  30627-4 0  9999
2 57105  43.0035  63.3496 0001458 260.5185  99.5501 15.27579174165998
Epoch: 2026-06-20T02:35Z
TLE epoch observation values (Epoch: 2026-06-20T02:35:43.569Z)
Latitude
-0.00006°
Longitude
116.09049°
Altitude
482.993 km
Speed
7.626 km/s
True Right ascension
04h 13m 23s
True Declination
0° 00' 00"
Sunlit
Object was in daylight at epoch
Visualization orbit readout
Latitude
Unknown
Longitude
Unknown
Altitude
Unknown
Speed
Unknown
Apparent Right ascension
Unknown
Apparent Declination
Unknown
Sunlit
N/A
Visualization observer readout
Local Sidereal Time
21:31:55
Azimuth
Unknown
Elevation
Unknown
Doppler factor
Unknown
Orbital elements
Apogee altitude
485.997 km
Perigee altitude
483.996 km
Semi-major axis
6,863.133 km
Eccentricity
0.00015
Inclination
43.0035°
RAAN
63.3496°
Arg. of periapsis
260.5185°
True anomaly
99.56658°
Mean anomaly
99.5501°
Eccentric anomaly
99.55834°
Mean motion
3.81733 °/min
Orbital period
94.31 mins
BSTAR
0.000030627
Loading maneuver chart data...
Computing Atmospheric mass density...
Loading historical data...
Loading historical data...
Loading historical data...
Loading historical data...
Loading historical data...
Loading historical data...
Loading historical data...

Documentation

Showing up to 5 results
|